STARLINK-2431, 47839

Orbit data source: Space-Track

STARLINK-2431, 47839 is a payload satellite owned by SpaceX/Seattle (US) in LEO that was launched on Thu, 11 Mar 2021 UTC via an FALCON 9 launch vehicle from the Air Force Eastern Test Range (AFETR). Payload-class satellites include a variety of spacecraft equipped with specific instruments for various scientific and technological missions. These include communications satellites like Starlink; space stations such as the ISS; scientific satellites like the Hubble; Earth observation satellites from companies like Planet Labs, Umbra, and HawkEye 360; GPS; miniature CubeSats for education and research; and military/defense satellites.

Loading next visibility...
Identifier
47839, 2021-018BE
Orbit
LEO
Country
Flag of USUS
Related business
Manufacturer
SpaceX/Seattle
Mission
Operational Commercial Communications
Bus & Motor
STARLINK, Unknown motor
Mass
260 kg wet, ~248 kg dry
Launch date (UTC)
2021-03-11 (5 years ago)
Launch vehicle
FALCON 9
Launch site
Air Force Eastern Test Range (AFETR)
Object type
Payload
Rocket body
Debris
Shape & HBR
Box + 1 Pan, 10.1 m
Radar Cross Section
13.562 m², Large (>1 m²)

Expand to show TLE details & history
Last TLE update: 16 hours ago

TLE from 16 hours ago
0 STARLINK-2431
1 47839U 21018BE  26119.84699454  .00003185  00000-0  11438-3 0  9998
2 47839  53.1599 339.1484 0001217  96.2821 263.8319 15.31697253284936
Epoch: 2026-04-29T20:19Z
TLE epoch observation values (Epoch: 2026-04-29T20:19:40.328Z)
Latitude
-0.00002°
Longitude
176.42827°
Altitude
471.738 km
Speed
7.631 km/s
True Right ascension
22h 36m 35s
True Declination
0° 00' 00"
Sunlit
Object was in daylight at epoch
Visualization orbit readout
Latitude
Unknown
Longitude
Unknown
Altitude
Unknown
Speed
Unknown
Apparent Right ascension
Unknown
Apparent Declination
Unknown
Sunlit
N/A
Visualization observer readout
Local Sidereal Time
20:14:03
Azimuth
Unknown
Elevation
Unknown
Doppler factor
Unknown
Orbital elements
Apogee altitude
471.838 km
Perigee altitude
470.171 km
Semi-major axis
6,849.142 km
Eccentricity
0.00012
Inclination
53.1599°
RAAN
339.1484°
Arg. of periapsis
96.2821°
True anomaly
263.81804°
Mean anomaly
263.8319°
Eccentric anomaly
263.82497°
Mean motion
3.82903 °/min
Orbital period
94.02 mins
BSTAR
0.00011438
Loading maneuver chart data...
Computing Atmospheric mass density...
Loading historical data...
Loading historical data...
Loading historical data...
Loading historical data...
Loading historical data...
Loading historical data...
Loading historical data...

Documentation

Showing up to 5 results
|